Overview Statistics Trail Chart Weather Telemetry Raw packets
 

This is the latest recevied weather packets stored in our database for station/object HB9FHL-13. If no packets are shown the sender has not sent any weather packets the latest 10 day(s).

<< 19 20 21 22 23 24 25 >>
Time Temp. Humidity Pressure Rain* Wind** Luminosity Snow
1788556628 24.44° C - 1018.3 hPa 0 mm - - -
1788556320 24.44° C - 1025.2 hPa 0 mm - - -
1788556021 24.44° C - 1021.4 hPa 0 mm - - -
1788555418 25° C - 1021.6 hPa 0 mm - - -
1788554852 25.56° C - 1022.2 hPa 0 mm - - -
1788554842 25.56° C - 1022.2 hPa 0 mm - - -
1788554516 25.56° C - 1021.1 hPa 0 mm - - -
1788553949 23.89° C - 1020.8 hPa 0 mm - - -
1788553915 23.89° C - 1020.8 hPa 0 mm - - -
1788553615 24.44° C - 1020.3 hPa 0 mm - - -
1788553014 25° C - 1024.1 hPa 0 mm - - -
1788552714 24.44° C - 1019.9 hPa 0 mm - - -
1788552413 26.11° C - 1020.2 hPa 0 mm - - -
1788552112 25.56° C - 1017.4 hPa 0 mm - - -
1788551812 24.44° C - 1018.8 hPa 0 mm - - -
1788551511 25.56° C - 1022.4 hPa 0 mm - - -
1788551211 25.56° C - 1021.3 hPa 0 mm - - -
1788550910 25° C - 1019.6 hPa 0 mm - - -
1788550610 25.56° C - 1022.1 hPa 0 mm - - -
1788550309 25.56° C - 1018.8 hPa 0 mm - - -
1788550009 26.67° C - 1021.1 hPa 0 mm - - -
1788549708 26.11° C - 1018.3 hPa 0 mm - - -
1788549408 26.67° C - 1016.4 hPa 0 mm - - -
1788549107 27.22° C - 1022.8 hPa 0 mm - - -
1788548807 27.22° C - 1024 hPa 0 mm - - -

* Rain since midnight (hover to see other rain measurements)
** Current wind speed in m/s (hover to see current wind gust speed)